Tracking 19219 objects as of 19-Jul-2018
HD Live streaming from Space Station
objects crossing your sky now

FENGYUN 1C DEB

Track FENGYUN 1C DEB now!
10-day predictions


NORAD ID: 31042
Int'l Code: 1999-025BEL
Perigee: 636.2 km
Apogee: 733.3 km
Inclination: 99.0 °
Period: 98.3 minutes
Semi major axis: 7055 km
RCS: 0.0041 m2 (small)
Launch date: May 10, 1999
Source: People's Republic of China (PRC)
Launch site: Taiyaun Space Center, China (TSC)

Note: This is SATELLITE DEBRIS
aabbcc
Your satellite tracking list
Your tracking list is empty




NASA's NSSDC Master Catalog

Two Line Element Set (TLE):
1 31042U 99025BEL 18200.42157534  .00001509  00000-0  28406-3 0  9995
2 31042  99.0426 165.9424 0068804  75.7894 285.0937 14.64833617598109
Source of the keplerian elements: AFSPC